Time,TemperatureF,DewpointF,PressureIn,WindDirection,WindDirectionDegrees,WindSpeedMPH,WindSpeedGustMPH,Humidity,HourlyPrecipIn,Conditions,Clouds,dailyrainin,SolarRadiationWatts/m^2,SoftwareType,DateUTC
2013-05-18 00:02:00,60.3,53.4,30.19,SSE,161,13.0,14.0,78,0.00,,,0.00,0,Wunderground v.1.15,2013-05-18 04:02:00,
2013-05-18 00:04:00,60.4,53.9,30.20,SSE,153,13.0,14.0,79,0.00,,,0.00,0,Wunderground v.1.15,2013-05-18 04:04:00,
2013-05-18 00:10:00,60.4,53.9,30.20,SSE,151,12.0,12.0,79,0.00,,,0.00,0,Wunderground v.1.15,2013-05-18 04:10:00,
2013-05-18 00:12:00,60.4,53.9,30.20,South,176,12.0,12.0,79,0.00,,,0.00,0,Wunderground v.1.15,2013-05-18 04:12:00,
2013-05-18 00:18:00,60.5,54.0,30.20,SSE,148,12.0,12.0,79,0.00,,,0.00,0,Wunderground v.1.15,2013-05-18 04:18:00,
2013-05-18 00:20:00,60.5,54.0,30.19,SSE,167,12.0,12.0,79,0.00,,,0.00,0,Wunderground v.1.15,2013-05-18 04:20:00,
2013-05-18 00:26:00,60.5,53.6,30.19,SSE,148,12.0,13.0,78,0.00,,,0.00,0,Wunderground v.1.15,2013-05-18 04:26:00,
2013-05-18 00:32:00,60.7,54.5,30.19,SE,145,12.0,14.0,80,0.00,,,0.00,0,Wunderground v.1.15,2013-05-18 04:32:00,
2013-05-18 00:38:00,60.6,54.0,30.20,SSE,148,12.0,15.0,79,0.00,,,0.00,0,Wunderground v.1.15,2013-05-18 04:38:00,
2013-05-18 00:44:00,60.5,54.0,30.20,SSE,148,13.0,14.0,79,0.00,,,0.00,0,Wunderground v.1.15,2013-05-18 04:44:00,
2013-05-18 00:50:00,60.4,53.5,30.19,SSE,149,13.0,13.0,78,0.00,,,0.00,0,Wunderground v.1.15,2013-05-18 04:50:00,
2013-05-18 00:56:00,60.5,53.6,30.20,SSE,160,12.0,15.0,78,0.00,,,0.00,0,Wunderground v.1.15,2013-05-18 04:56:00,
2013-05-18 01:02:00,60.6,53.7,30.20,SSE,150,12.0,13.0,78,0.00,,,0.00,0,Wunderground v.1.15,2013-05-18 05:02:00,
2013-05-18 01:08:00,60.6,53.7,30.20,SSE,155,12.0,15.0,78,0.00,,,0.00,0,Wunderground v.1.15,2013-05-18 05:08:00,
2013-05-18 01:14:00,60.7,54.1,30.20,SSE,153,12.0,12.0,79,0.00,,,0.00,0,Wunderground v.1.15,2013-05-18 05:14:00,
2013-05-18 01:20:00,60.7,54.1,30.20,SSE,155,11.0,11.0,79,0.00,,,0.00,0,Wunderground v.1.15,2013-05-18 05:20:00,
2013-05-18 01:26:00,60.7,54.5,30.20,SSE,157,12.0,12.0,80,0.00,,,0.00,0,Wunderground v.1.15,2013-05-18 05:26:00,
2013-05-18 01:32:00,60.8,54.9,30.20,SSE,157,11.0,13.0,81,0.00,,,0.00,0,Wunderground v.1.15,2013-05-18 05:32:00,
2013-05-18 01:38:00,60.8,54.9,30.19,SSE,157,11.0,13.0,81,0.00,,,0.00,0,Wunderground v.1.15,2013-05-18 05:38:00,
2013-05-18 01:44:00,60.7,54.8,30.19,SSE,158,11.0,12.0,81,0.00,,,0.00,0,Wunderground v.1.15,2013-05-18 05:44:00,
2013-05-18 01:50:00,60.8,54.9,30.19,SSE,161,11.0,12.0,81,0.00,,,0.00,0,Wunderground v.1.15,2013-05-18 05:50:00,
2013-05-18 01:56:00,60.8,55.3,30.19,SSE,161,10.0,12.0,82,0.00,,,0.00,0,Wunderground v.1.15,2013-05-18 05:56:00,
2013-05-18 02:02:00,60.8,55.3,30.19,SSE,159,9.0,10.0,82,0.00,,,0.00,0,Wunderground v.1.15,2013-05-18 06:02:00,
2013-05-18 02:08:00,60.9,55.4,30.19,SSE,157,9.0,12.0,82,0.00,,,0.00,0,Wunderground v.1.15,2013-05-18 06:08:00,
2013-05-18 02:14:00,60.9,55.4,30.19,SSE,159,10.0,10.0,82,0.00,,,0.00,0,Wunderground v.1.15,2013-05-18 06:14:00,
2013-05-18 02:20:00,61.0,55.5,30.19,SSE,157,9.0,9.0,82,0.00,,,0.00,0,Wunderground v.1.15,2013-05-18 06:20:00,
2013-05-18 02:26:00,61.0,55.5,30.19,SSE,157,6.0,9.0,82,0.00,,,0.00,0,Wunderground v.1.15,2013-05-18 06:26:00,
2013-05-18 02:32:00,61.0,55.5,30.19,SSE,157,3.0,4.0,82,0.00,,,0.00,0,Wunderground v.1.15,2013-05-18 06:32:00,
2013-05-18 02:38:00,60.9,55.4,30.19,SSE,159,3.0,8.0,82,0.00,,,0.00,0,Wunderground v.1.15,2013-05-18 06:38:00,
2013-05-18 02:46:00,61.0,55.8,30.19,SSE,159,2.0,4.0,83,0.00,,,0.00,0,Wunderground v.1.15,2013-05-18 06:46:00,
2013-05-18 02:52:00,61.0,55.8,30.19,SSE,159,3.0,3.0,83,0.00,,,0.00,0,Wunderground v.1.15,2013-05-18 06:52:00,
2013-05-18 02:58:00,61.0,55.8,30.19,SSE,159,2.0,6.0,83,0.00,,,0.00,0,Wunderground v.1.15,2013-05-18 06:58:00,
2013-05-18 03:06:00,61.0,55.8,30.19,SSE,159,3.0,4.0,83,0.00,,,0.00,0,Wunderground v.1.15,2013-05-18 07:06:00,
2013-05-18 03:12:00,61.1,55.9,30.19,SSE,159,3.0,5.0,83,0.00,,,0.00,0,Wunderground v.1.15,2013-05-18 07:12:00,
2013-05-18 03:18:00,61.1,55.9,30.19,SSE,159,3.0,6.0,83,0.00,,,0.00,0,Wunderground v.1.15,2013-05-18 07:18:00,
2013-05-18 03:26:00,61.1,55.9,30.19,SSE,159,4.0,6.0,83,0.00,,,0.00,0,Wunderground v.1.15,2013-05-18 07:26:00,
2013-05-18 03:32:00,61.1,56.2,30.19,SSE,158,4.0,4.0,84,0.00,,,0.00,0,Wunderground v.1.15,2013-05-18 07:32:00,
2013-05-18 03:38:00,61.1,56.2,30.19,SSE,158,3.0,5.0,84,0.00,,,0.00,0,Wunderground v.1.15,2013-05-18 07:38:00,
2013-05-18 03:44:00,61.0,55.8,30.19,SSE,159,2.0,6.0,83,0.00,,,0.00,0,Wunderground v.1.15,2013-05-18 07:44:00,
2013-05-18 03:50:00,61.0,55.8,30.20,SSE,159,3.0,8.0,83,0.00,,,0.00,0,Wunderground v.1.15,2013-05-18 07:50:00,
2013-05-18 03:56:00,61.0,55.8,30.20,SSE,159,4.0,8.0,83,0.00,,,0.00,0,Wunderground v.1.15,2013-05-18 07:56:00,
2013-05-18 04:02:00,61.0,55.8,30.21,SSE,159,3.0,4.0,83,0.00,,,0.00,0,Wunderground v.1.15,2013-05-18 08:02:00,
2013-05-18 04:08:00,61.1,55.9,30.21,SSE,159,4.0,6.0,83,0.00,,,0.00,0,Wunderground v.1.15,2013-05-18 08:08:00,
2013-05-18 04:16:00,61.1,55.9,30.21,SSE,159,3.0,5.0,83,0.00,,,0.00,0,Wunderground v.1.15,2013-05-18 08:16:00,
2013-05-18 04:22:00,61.1,55.6,30.21,SSE,159,3.0,5.0,82,0.00,,,0.00,0,Wunderground v.1.15,2013-05-18 08:22:00,
2013-05-18 04:28:00,61.2,55.7,30.21,SSE,159,4.0,5.0,82,0.00,,,0.00,0,Wunderground v.1.15,2013-05-18 08:28:00,
2013-05-18 04:36:00,61.2,55.7,30.21,SSE,159,4.0,5.0,82,0.00,,,0.00,0,Wunderground v.1.15,2013-05-18 08:36:00,
2013-05-18 04:42:00,61.1,55.2,30.22,SSE,159,3.0,3.0,81,0.00,,,0.00,0,Wunderground v.1.15,2013-05-18 08:42:00,
2013-05-18 04:48:00,61.2,55.3,30.22,SSE,159,4.0,6.0,81,0.00,,,0.00,0,Wunderground v.1.15,2013-05-18 08:48:00,
2013-05-18 04:56:00,61.1,55.2,30.22,SSE,159,3.0,4.0,81,0.00,,,0.00,0,Wunderground v.1.15,2013-05-18 08:56:00,
2013-05-18 05:02:00,61.1,55.2,30.22,SSE,159,3.0,4.0,81,0.00,,,0.00,0,Wunderground v.1.15,2013-05-18 09:02:00,
2013-05-18 05:08:00,61.1,55.6,30.23,SSE,159,4.0,4.0,82,0.00,,,0.00,0,Wunderground v.1.15,2013-05-18 09:08:00,
2013-05-18 05:14:00,61.1,55.6,30.23,SSE,159,4.0,6.0,82,0.00,,,0.00,0,Wunderground v.1.15,2013-05-18 09:14:00,
2013-05-18 05:20:00,61.2,55.3,30.23,SSE,159,4.0,4.0,81,0.00,,,0.00,0,Wunderground v.1.15,2013-05-18 09:20:00,
2013-05-18 05:26:00,61.3,55.4,30.23,SSE,159,3.0,4.0,81,0.00,,,0.00,0,Wunderground v.1.15,2013-05-18 09:26:00,
2013-05-18 05:32:00,61.4,55.5,30.23,SSE,159,3.0,4.0,81,0.00,,,0.00,0,Wunderground v.1.15,2013-05-18 09:32:00,
2013-05-18 05:38:00,61.4,55.2,30.23,SSE,159,4.0,4.0,80,0.00,,,0.00,0,Wunderground v.1.15,2013-05-18 09:38:00,
2013-05-18 05:44:00,61.5,55.3,30.23,SSE,159,4.0,4.0,80,0.00,,,0.00,0,Wunderground v.1.15,2013-05-18 09:44:00,
2013-05-18 05:50:00,61.5,55.3,30.23,SSE,159,4.0,4.0,80,0.00,,,0.00,5,Wunderground v.1.15,2013-05-18 09:50:00,
2013-05-18 05:56:00,61.4,55.5,30.24,SSE,159,3.0,5.0,81,0.00,,,0.00,11,Wunderground v.1.15,2013-05-18 09:56:00,
2013-05-18 06:02:00,61.4,55.5,30.24,SSE,159,3.0,4.0,81,0.00,,,0.00,12,Wunderground v.1.15,2013-05-18 10:02:00,
2013-05-18 06:08:00,61.4,55.9,30.24,SSE,160,3.0,4.0,82,0.00,,,0.00,18,Wunderground v.1.15,2013-05-18 10:08:00,
2013-05-18 06:16:00,61.3,56.1,30.24,SSE,160,2.0,3.0,83,0.00,,,0.00,26,Wunderground v.1.15,2013-05-18 10:16:00,
2013-05-18 06:22:00,61.2,56.0,30.24,SSE,160,2.0,2.0,83,0.00,,,0.00,33,Wunderground v.1.15,2013-05-18 10:22:00,
2013-05-18 06:28:00,61.1,56.2,30.24,SSE,160,1.0,2.0,84,0.00,,,0.00,33,Wunderground v.1.15,2013-05-18 10:28:00,
2013-05-18 06:36:00,61.1,56.2,30.24,SSE,160,1.0,3.0,84,0.00,,,0.00,47,Wunderground v.1.15,2013-05-18 10:36:00,
2013-05-18 06:42:00,61.1,56.2,30.25,SSE,160,1.0,2.0,84,0.00,,,0.00,67,Wunderground v.1.15,2013-05-18 10:42:00,
2013-05-18 06:48:00,61.2,56.3,30.25,SSE,160,1.0,4.0,84,0.00,,,0.00,91,Wunderground v.1.15,2013-05-18 10:48:00,
2013-05-18 06:54:00,61.3,56.8,30.24,SSE,160,2.0,2.0,85,0.00,,,0.00,148,Wunderground v.1.15,2013-05-18 10:54:00,
2013-05-18 07:00:00,61.6,57.0,30.24,SSE,160,2.0,2.0,85,0.00,,,0.00,185,Wunderground v.1.15,2013-05-18 11:00:00,
2013-05-18 07:06:00,61.8,57.2,30.24,SSE,160,2.0,2.0,85,0.00,,,0.00,207,Wunderground v.1.15,2013-05-18 11:06:00,
2013-05-18 07:12:00,62.0,57.1,30.24,SSE,160,3.0,4.0,84,0.00,,,0.00,213,Wunderground v.1.15,2013-05-18 11:12:00,
2013-05-18 07:18:00,62.1,57.2,30.24,SSE,160,5.0,6.0,84,0.00,,,0.00,153,Wunderground v.1.15,2013-05-18 11:18:00,
2013-05-18 07:24:00,62.1,57.2,30.25,SSE,159,5.0,8.0,84,0.00,,,0.00,149,Wunderground v.1.15,2013-05-18 11:24:00,
2013-05-18 07:30:00,62.0,57.1,30.25,SSE,160,5.0,7.0,84,0.00,,,0.00,134,Wunderground v.1.15,2013-05-18 11:30:00,
2013-05-18 07:36:00,61.9,57.0,30.25,SSE,158,6.0,9.0,84,0.00,,,0.00,134,Wunderground v.1.15,2013-05-18 11:36:00,
2013-05-18 07:42:00,61.7,56.8,30.25,SSE,158,7.0,9.0,84,0.00,,,0.00,265,Wunderground v.1.15,2013-05-18 11:42:00,
2013-05-18 07:48:00,61.8,56.9,30.25,SSE,158,7.0,9.0,84,0.00,,,0.00,169,Wunderground v.1.15,2013-05-18 11:48:00,
2013-05-18 07:56:00,61.7,56.8,30.25,SSE,159,8.0,9.0,84,0.00,,,0.00,197,Wunderground v.1.15,2013-05-18 11:56:00,
2013-05-18 08:02:00,61.7,56.8,30.25,SSE,159,9.0,9.0,84,0.00,,,0.00,172,Wunderground v.1.15,2013-05-18 12:02:00,
2013-05-18 08:08:00,61.7,56.8,30.25,SSE,153,10.0,12.0,84,0.00,,,0.00,135,Wunderground v.1.15,2013-05-18 12:08:00,
2013-05-18 08:14:00,61.7,57.1,30.25,SSE,148,10.0,11.0,85,0.00,,,0.00,109,Wunderground v.1.15,2013-05-18 12:14:00,
2013-05-18 08:20:00,61.5,56.9,30.25,SSE,150,10.0,10.0,85,0.00,,,0.00,130,Wunderground v.1.15,2013-05-18 12:20:00,
2013-05-18 08:26:00,61.4,56.8,30.26,SSE,151,9.0,11.0,85,0.00,,,0.00,153,Wunderground v.1.15,2013-05-18 12:26:00,
2013-05-18 08:32:00,61.5,56.9,30.26,SSE,151,8.0,8.0,85,0.00,,,0.00,183,Wunderground v.1.15,2013-05-18 12:32:00,
2013-05-18 08:38:00,61.6,56.7,30.26,SSW,194,7.0,8.0,84,0.00,,,0.00,225,Wunderground v.1.15,2013-05-18 12:38:00,
2013-05-18 08:44:00,61.9,57.0,30.27,SSE,165,7.0,8.0,84,0.00,,,0.00,288,Wunderground v.1.15,2013-05-18 12:44:00,
2013-05-18 08:50:00,62.1,56.9,30.27,SSE,162,6.0,7.0,83,0.00,,,0.00,302,Wunderground v.1.15,2013-05-18 12:50:00,
2013-05-18 08:56:00,62.2,56.6,30.26,SSE,155,7.0,7.0,82,0.00,,,0.00,338,Wunderground v.1.15,2013-05-18 12:56:00,
2013-05-18 09:02:00,62.4,56.8,30.26,SSE,154,6.0,7.0,82,0.00,,,0.00,285,Wunderground v.1.15,2013-05-18 13:02:00,
2013-05-18 09:08:00,62.3,56.7,30.26,SSE,151,7.0,7.0,82,0.00,,,0.00,279,Wunderground v.1.15,2013-05-18 13:08:00,
2013-05-18 09:14:00,62.2,56.3,30.26,SSE,155,7.0,8.0,81,0.00,,,0.00,292,Wunderground v.1.15,2013-05-18 13:14:00,
2013-05-18 09:20:00,62.3,56.4,30.26,SSE,153,7.0,10.0,81,0.00,,,0.00,327,Wunderground v.1.15,2013-05-18 13:20:00,
2013-05-18 09:26:00,62.3,56.7,30.27,SSE,153,8.0,10.0,82,0.00,,,0.00,301,Wunderground v.1.15,2013-05-18 13:26:00,
2013-05-18 09:32:00,62.2,57.0,30.27,SSE,157,9.0,12.0,83,0.00,,,0.00,285,Wunderground v.1.15,2013-05-18 13:32:00,
2013-05-18 09:38:00,62.1,56.9,30.27,SSE,156,10.0,12.0,83,0.00,,,0.00,272,Wunderground v.1.15,2013-05-18 13:38:00,
2013-05-18 09:44:00,61.9,56.7,30.26,SSE,157,10.0,12.0,83,0.00,,,0.00,237,Wunderground v.1.15,2013-05-18 13:44:00,
2013-05-18 09:50:00,61.8,56.9,30.26,SSE,159,11.0,12.0,84,0.00,,,0.00,206,Wunderground v.1.15,2013-05-18 13:50:00,
2013-05-18 09:56:00,61.7,56.8,30.26,SSE,157,11.0,13.0,84,0.00,,,0.00,218,Wunderground v.1.15,2013-05-18 13:56:00,
2013-05-18 10:02:00,61.7,57.1,30.26,SSE,160,11.0,13.0,85,0.00,,,0.00,241,Wunderground v.1.15,2013-05-18 14:02:00,
2013-05-18 10:08:00,61.7,57.1,30.26,SSE,160,11.0,13.0,85,0.00,,,0.00,283,Wunderground v.1.15,2013-05-18 14:08:00,
2013-05-18 10:14:00,61.9,57.3,30.26,SSE,159,10.0,11.0,85,0.00,,,0.00,320,Wunderground v.1.15,2013-05-18 14:14:00,
2013-05-18 10:20:00,62.0,57.4,30.26,SSE,158,10.0,11.0,85,0.00,,,0.00,295,Wunderground v.1.15,2013-05-18 14:20:00,
2013-05-18 10:26:00,61.9,57.3,30.26,SSE,157,11.0,13.0,85,0.00,,,0.00,257,Wunderground v.1.15,2013-05-18 14:26:00,
2013-05-18 10:32:00,61.8,57.2,30.27,SSE,160,11.0,13.0,85,0.00,,,0.00,306,Wunderground v.1.15,2013-05-18 14:32:00,
2013-05-18 10:38:00,62.0,57.4,30.27,SSE,157,10.0,13.0,85,0.00,,,0.00,352,Wunderground v.1.15,2013-05-18 14:38:00,
2013-05-18 10:44:00,62.3,57.7,30.27,SSE,155,9.0,11.0,85,0.00,,,0.00,364,Wunderground v.1.15,2013-05-18 14:44:00,
2013-05-18 10:50:00,62.6,57.7,30.27,SSE,153,9.0,9.0,84,0.00,,,0.00,496,Wunderground v.1.15,2013-05-18 14:50:00,
2013-05-18 10:56:00,62.8,57.6,30.27,SSE,154,9.0,11.0,83,0.00,,,0.00,387,Wunderground v.1.15,2013-05-18 14:56:00,
2013-05-18 11:02:00,62.8,57.6,30.27,SSE,154,9.0,11.0,83,0.00,,,0.00,610,Wunderground v.1.15,2013-05-18 15:02:00,
2013-05-18 11:08:00,63.0,57.8,30.27,SSE,155,9.0,12.0,83,0.00,,,0.00,452,Wunderground v.1.15,2013-05-18 15:08:00,
2013-05-18 11:14:00,63.0,57.8,30.27,SSE,155,8.0,9.0,83,0.00,,,0.00,452,Wunderground v.1.15,2013-05-18 15:14:00,
2013-05-18 11:20:00,63.2,57.9,30.28,SSE,155,7.0,7.0,83,0.00,,,0.00,320,Wunderground v.1.15,2013-05-18 15:20:00,
2013-05-18 11:26:00,63.1,57.9,30.28,SSE,155,6.0,9.0,83,0.00,,,0.00,352,Wunderground v.1.15,2013-05-18 15:26:00,
2013-05-18 11:32:00,63.1,57.9,30.27,SSE,155,6.0,6.0,83,0.00,,,0.00,457,Wunderground v.1.15,2013-05-18 15:32:00,
2013-05-18 11:38:00,63.3,57.7,30.27,SSE,155,6.0,9.0,82,0.00,,,0.00,475,Wunderground v.1.15,2013-05-18 15:38:00,
2013-05-18 11:44:00,63.3,58.0,30.28,SSE,155,7.0,8.0,83,0.00,,,0.00,555,Wunderground v.1.15,2013-05-18 15:44:00,
2013-05-18 11:50:00,63.5,58.2,30.27,SSE,155,7.0,7.0,83,0.00,,,0.00,638,Wunderground v.1.15,2013-05-18 15:50:00,
2013-05-18 11:56:00,63.9,58.3,30.27,SSE,155,7.0,7.0,82,0.00,,,0.00,879,Wunderground v.1.15,2013-05-18 15:56:00,
2013-05-18 12:02:00,64.0,58.4,30.28,SSE,155,8.0,8.0,82,0.00,,,0.00,485,Wunderground v.1.15,2013-05-18 16:02:00,
2013-05-18 12:08:00,63.4,58.1,30.28,SSE,155,6.0,8.0,83,0.00,,,0.00,367,Wunderground v.1.15,2013-05-18 16:08:00,
2013-05-18 12:14:00,62.8,57.9,30.27,SSE,153,6.0,7.0,84,0.00,,,0.00,478,Wunderground v.1.15,2013-05-18 16:14:00,
2013-05-18 12:20:00,62.9,58.3,30.27,SSE,153,7.0,7.0,85,0.00,,,0.00,529,Wunderground v.1.15,2013-05-18 16:20:00,
2013-05-18 12:26:00,63.1,58.2,30.27,SSE,153,8.0,10.0,84,0.00,,,0.00,577,Wunderground v.1.15,2013-05-18 16:26:00,
2013-05-18 12:32:00,63.1,58.2,30.26,SSE,153,9.0,11.0,84,0.00,,,0.00,529,Wunderground v.1.15,2013-05-18 16:32:00,
2013-05-18 12:38:00,63.0,58.4,30.26,SSE,155,10.0,11.0,85,0.00,,,0.00,555,Wunderground v.1.15,2013-05-18 16:38:00,
2013-05-18 12:44:00,62.7,58.1,30.25,SSE,157,10.0,10.0,85,0.00,,,0.00,489,Wunderground v.1.15,2013-05-18 16:44:00,
2013-05-18 12:50:00,62.7,58.1,30.25,SSE,158,11.0,11.0,85,0.00,,,0.00,522,Wunderground v.1.15,2013-05-18 16:50:00,
2013-05-18 12:56:00,62.6,58.0,30.25,SSE,158,11.0,12.0,85,0.00,,,0.00,313,Wunderground v.1.15,2013-05-18 16:56:00,
2013-05-18 13:02:00,62.2,58.0,30.26,SSE,158,11.0,11.0,86,0.00,,,0.00,313,Wunderground v.1.15,2013-05-18 17:02:00,
2013-05-18 13:08:00,62.1,57.9,30.26,SSE,157,10.0,12.0,86,0.00,,,0.00,318,Wunderground v.1.15,2013-05-18 17:08:00,
2013-05-18 13:14:00,62.0,57.8,30.26,SSE,154,10.0,12.0,86,0.00,,,0.00,374,Wunderground v.1.15,2013-05-18 17:14:00,
2013-05-18 13:20:00,62.0,57.8,30.26,SSE,151,10.0,10.0,86,0.00,,,0.00,322,Wunderground v.1.15,2013-05-18 17:20:00,
2013-05-18 13:26:00,62.1,58.2,30.26,SSE,149,10.0,11.0,87,0.00,,,0.00,281,Wunderground v.1.15,2013-05-18 17:26:00,
2013-05-18 13:32:00,62.0,57.8,30.26,SE,135,9.0,10.0,86,0.00,,,0.00,171,Wunderground v.1.15,2013-05-18 17:32:00,
2013-05-18 13:38:00,62.0,58.1,30.26,SE,133,9.0,10.0,87,0.00,,,0.00,153,Wunderground v.1.15,2013-05-18 17:38:00,
2013-05-18 13:44:00,61.8,57.9,30.26,SE,131,10.0,11.0,87,0.00,,,0.00,144,Wunderground v.1.15,2013-05-18 17:44:00,
2013-05-18 13:50:00,61.7,57.8,30.26,SE,130,10.0,11.0,87,0.00,,,0.00,141,Wunderground v.1.15,2013-05-18 17:50:00,
2013-05-18 13:56:00,61.6,57.7,30.26,SE,136,10.0,12.0,87,0.00,,,0.00,153,Wunderground v.1.15,2013-05-18 17:56:00,
2013-05-18 14:02:00,61.6,58.0,30.25,SE,138,11.0,12.0,88,0.00,,,0.00,211,Wunderground v.1.15,2013-05-18 18:02:00,
2013-05-18 14:08:00,61.6,58.0,30.25,SE,139,11.0,12.0,88,0.00,,,0.00,234,Wunderground v.1.15,2013-05-18 18:08:00,
2013-05-18 14:14:00,61.7,58.1,30.25,SE,142,11.0,12.0,88,0.00,,,0.00,248,Wunderground v.1.15,2013-05-18 18:14:00,
2013-05-18 14:20:00,61.7,58.1,30.25,SSE,147,11.0,11.0,88,0.00,,,0.00,257,Wunderground v.1.15,2013-05-18 18:20:00,
2013-05-18 14:26:00,61.8,58.2,30.24,SSE,150,11.0,12.0,88,0.00,,,0.00,306,Wunderground v.1.15,2013-05-18 18:26:00,
2013-05-18 14:32:00,61.8,58.2,30.24,SSE,154,12.0,14.0,88,0.00,,,0.00,339,Wunderground v.1.15,2013-05-18 18:32:00,
2013-05-18 14:38:00,61.8,58.2,30.24,SSE,153,12.0,14.0,88,0.00,,,0.00,376,Wunderground v.1.15,2013-05-18 18:38:00,
2013-05-18 14:46:00,61.8,58.2,30.24,SSE,155,11.0,12.0,88,0.00,,,0.00,376,Wunderground v.1.15,2013-05-18 18:46:00,
2013-05-18 14:52:00,61.9,58.3,30.24,SSE,156,10.0,11.0,88,0.00,,,0.00,413,Wunderground v.1.15,2013-05-18 18:52:00,
2013-05-18 14:58:00,62.2,58.6,30.23,SSE,157,10.0,12.0,88,0.00,,,0.00,468,Wunderground v.1.15,2013-05-18 18:58:00,
2013-05-18 15:04:00,62.4,58.5,30.24,SSE,157,10.0,11.0,87,0.00,,,0.00,457,Wunderground v.1.15,2013-05-18 19:04:00,
2013-05-18 15:10:00,62.5,58.6,30.24,SSE,158,10.0,10.0,87,0.00,,,0.00,385,Wunderground v.1.15,2013-05-18 19:10:00,
2013-05-18 15:16:00,62.4,58.5,30.24,SSE,157,8.0,10.0,87,0.00,,,0.00,383,Wunderground v.1.15,2013-05-18 19:16:00,
2013-05-18 15:22:00,62.5,58.9,30.24,SSE,158,7.0,7.0,88,0.00,,,0.00,313,Wunderground v.1.15,2013-05-18 19:22:00,
2013-05-18 15:28:00,62.6,59.0,30.24,SSE,158,7.0,7.0,88,0.00,,,0.00,257,Wunderground v.1.15,2013-05-18 19:28:00,
2013-05-18 15:34:00,62.3,58.7,30.24,SSE,158,7.0,8.0,88,0.00,,,0.00,207,Wunderground v.1.15,2013-05-18 19:34:00,
2013-05-18 15:40:00,62.2,58.6,30.24,SSE,158,7.0,7.0,88,0.00,,,0.00,239,Wunderground v.1.15,2013-05-18 19:40:00,
2013-05-18 15:46:00,62.2,58.6,30.24,SSE,157,7.0,7.0,88,0.00,,,0.00,153,Wunderground v.1.15,2013-05-18 19:46:00,
2013-05-18 15:52:00,62.2,58.9,30.24,SSE,158,6.0,7.0,89,0.00,,,0.00,148,Wunderground v.1.15,2013-05-18 19:52:00,
2013-05-18 15:58:00,62.1,58.8,30.24,SSE,157,6.0,7.0,89,0.00,,,0.00,144,Wunderground v.1.15,2013-05-18 19:58:00,
2013-05-18 16:04:00,62.0,58.7,30.24,SSE,158,6.0,7.0,89,0.00,,,0.00,120,Wunderground v.1.15,2013-05-18 20:04:00,
2013-05-18 16:10:00,61.8,58.8,30.24,SSE,158,7.0,7.0,90,0.00,,,0.00,104,Wunderground v.1.15,2013-05-18 20:10:00,
2013-05-18 16:16:00,61.8,58.8,30.24,SSE,158,7.0,8.0,90,0.00,,,0.00,88,Wunderground v.1.15,2013-05-18 20:16:00,
2013-05-18 16:22:00,61.8,58.8,30.24,SSE,158,6.0,7.0,90,0.00,,,0.00,76,Wunderground v.1.15,2013-05-18 20:22:00,
2013-05-18 16:28:00,61.8,58.8,30.24,SSE,157,5.0,7.0,90,0.00,,,0.00,100,Wunderground v.1.15,2013-05-18 20:28:00,
2013-05-18 16:34:00,61.7,58.7,30.23,SSE,158,6.0,9.0,90,0.00,,,0.00,105,Wunderground v.1.15,2013-05-18 20:34:00,
2013-05-18 16:40:00,61.7,58.7,30.24,SSE,158,7.0,7.0,90,0.00,,,0.00,100,Wunderground v.1.15,2013-05-18 20:40:00,
2013-05-18 16:46:00,61.6,58.6,30.24,SSE,158,7.0,7.0,90,0.00,,,0.00,81,Wunderground v.1.15,2013-05-18 20:46:00,
2013-05-18 16:52:00,61.5,58.8,30.24,SSE,158,7.0,8.0,91,0.00,,,0.00,79,Wunderground v.1.15,2013-05-18 20:52:00,
2013-05-18 16:58:00,61.3,58.7,30.24,SSE,158,7.0,9.0,91,0.00,,,0.00,49,Wunderground v.1.15,2013-05-18 20:58:00,
2013-05-18 17:04:00,61.2,58.6,30.24,SSE,158,7.0,7.0,91,0.00,,,0.00,32,Wunderground v.1.15,2013-05-18 21:04:00,
2013-05-18 17:10:00,61.1,58.5,30.24,SSE,157,7.0,7.0,91,0.00,,,0.01,28,Wunderground v.1.15,2013-05-18 21:10:00,
2013-05-18 17:16:00,60.9,58.3,30.24,SSE,157,7.0,9.0,91,0.00,,,0.01,35,Wunderground v.1.15,2013-05-18 21:16:00,
2013-05-18 17:22:00,60.8,58.2,30.24,SSE,158,7.0,7.0,91,0.00,,,0.01,37,Wunderground v.1.15,2013-05-18 21:22:00,
2013-05-18 17:28:00,60.9,58.3,30.24,SSE,157,6.0,7.0,91,0.00,,,0.01,33,Wunderground v.1.15,2013-05-18 21:28:00,
2013-05-18 17:34:00,60.9,58.3,30.24,SSE,157,5.0,6.0,91,0.00,,,0.01,46,Wunderground v.1.15,2013-05-18 21:34:00,
2013-05-18 17:40:00,60.7,57.7,30.24,SSE,158,4.0,4.0,90,0.00,,,0.01,62,Wunderground v.1.15,2013-05-18 21:40:00,
2013-05-18 17:46:00,61.1,58.1,30.23,SSE,157,4.0,7.0,90,0.00,,,0.01,60,Wunderground v.1.15,2013-05-18 21:46:00,
2013-05-18 17:52:00,61.2,58.9,30.24,SSE,157,6.0,7.0,92,0.00,,,0.01,40,Wunderground v.1.15,2013-05-18 21:52:00,
2013-05-18 17:58:00,61.2,58.2,30.24,SSE,157,6.0,7.0,90,0.00,,,0.01,33,Wunderground v.1.15,2013-05-18 21:58:00,
2013-05-18 18:04:00,61.0,58.0,30.24,SSE,157,6.0,6.0,90,0.00,,,0.01,37,Wunderground v.1.15,2013-05-18 22:04:00,
2013-05-18 18:10:00,60.7,57.7,30.24,SSE,157,6.0,6.0,90,0.00,,,0.01,39,Wunderground v.1.15,2013-05-18 22:10:00,
2013-05-18 18:16:00,60.7,58.1,30.24,SSE,157,4.0,6.0,91,0.00,,,0.01,37,Wunderground v.1.15,2013-05-18 22:16:00,
2013-05-18 18:22:00,60.7,58.1,30.24,SSE,157,3.0,4.0,91,0.00,,,0.01,33,Wunderground v.1.15,2013-05-18 22:22:00,
2013-05-18 18:28:00,60.6,58.0,30.24,SSE,157,3.0,6.0,91,0.00,,,0.01,21,Wunderground v.1.15,2013-05-18 22:28:00,
2013-05-18 18:34:00,60.4,57.8,30.24,SSE,157,5.0,6.0,91,0.00,,,0.01,19,Wunderground v.1.15,2013-05-18 22:34:00,
2013-05-18 18:40:00,60.4,57.8,30.24,SSE,157,5.0,5.0,91,0.00,,,0.01,19,Wunderground v.1.15,2013-05-18 22:40:00,
2013-05-18 18:46:00,60.5,57.9,30.24,SSE,157,4.0,5.0,91,0.00,,,0.01,21,Wunderground v.1.15,2013-05-18 22:46:00,
2013-05-18 18:52:00,60.6,58.0,30.24,SSE,157,5.0,5.0,91,0.00,,,0.01,12,Wunderground v.1.15,2013-05-18 22:52:00,
2013-05-18 18:58:00,60.6,58.0,30.24,SSE,157,4.0,5.0,91,0.00,,,0.01,14,Wunderground v.1.15,2013-05-18 22:58:00,
2013-05-18 19:04:00,60.5,57.9,30.24,SSE,157,3.0,4.0,91,0.00,,,0.01,14,Wunderground v.1.15,2013-05-18 23:04:00,
2013-05-18 19:10:00,60.6,58.3,30.24,SSE,157,4.0,4.0,92,0.00,,,0.01,18,Wunderground v.1.15,2013-05-18 23:10:00,
2013-05-18 19:16:00,60.6,58.3,30.24,SSE,157,4.0,5.0,92,0.00,,,0.01,9,Wunderground v.1.15,2013-05-18 23:16:00,
2013-05-18 19:22:00,60.6,58.3,30.24,SSE,157,4.0,5.0,92,0.00,,,0.01,9,Wunderground v.1.15,2013-05-18 23:22:00,
2013-05-18 19:28:00,60.6,58.3,30.24,SSE,157,5.0,5.0,92,0.00,,,0.01,5,Wunderground v.1.15,2013-05-18 23:28:00,
2013-05-18 19:36:00,60.5,58.2,30.25,SSE,157,5.0,7.0,92,0.00,,,0.01,0,Wunderground v.1.15,2013-05-18 23:36:00,
2013-05-18 19:42:00,60.5,58.5,30.25,SE,139,6.0,6.0,93,0.00,,,0.01,0,Wunderground v.1.15,2013-05-18 23:42:00,
2013-05-18 19:48:00,60.4,58.4,30.25,ESE,121,7.0,10.0,93,0.00,,,0.01,0,Wunderground v.1.15,2013-05-18 23:48:00,
2013-05-18 19:56:00,60.3,58.3,30.25,ESE,113,8.0,9.0,93,0.00,,,0.02,0,Wunderground v.1.15,2013-05-18 23:56:00,
2013-05-18 20:02:00,60.2,58.2,30.25,ESE,113,7.0,7.0,93,0.00,,,0.02,0,Wunderground v.1.15,2013-05-19 00:02:00,
2013-05-18 20:08:00,60.0,58.0,30.24,ESE,113,6.0,8.0,93,0.00,,,0.02,0,Wunderground v.1.15,2013-05-19 00:08:00,
2013-05-18 20:14:00,59.9,57.9,30.24,ESE,113,6.0,7.0,93,0.00,,,0.02,0,Wunderground v.1.15,2013-05-19 00:14:00,
2013-05-18 20:20:00,59.8,57.8,30.25,ESE,112,7.0,7.0,93,0.00,,,0.03,0,Wunderground v.1.15,2013-05-19 00:20:00,
2013-05-18 20:26:00,59.9,58.2,30.24,ESE,111,7.0,8.0,94,0.08,,,0.04,0,Wunderground v.1.15,2013-05-19 00:26:00,
2013-05-18 20:32:00,59.9,58.2,30.24,ESE,109,7.0,8.0,94,0.09,,,0.05,0,Wunderground v.1.15,2013-05-19 00:32:00,
2013-05-18 20:38:00,59.9,58.2,30.24,ESE,107,8.0,10.0,94,0.09,,,0.06,0,Wunderground v.1.15,2013-05-19 00:38:00,
2013-05-18 20:44:00,59.9,58.2,30.24,ESE,111,8.0,10.0,94,0.14,,,0.08,0,Wunderground v.1.15,2013-05-19 00:44:00,
2013-05-18 20:50:00,59.9,58.2,30.24,ESE,111,9.0,10.0,94,0.12,,,0.09,0,Wunderground v.1.15,2013-05-19 00:50:00,
2013-05-18 20:56:00,59.8,58.1,30.24,ESE,119,10.0,12.0,94,0.14,,,0.10,0,Wunderground v.1.15,2013-05-19 00:56:00,
2013-05-18 21:02:00,59.8,58.1,30.24,SE,134,13.0,13.0,94,0.08,,,0.11,0,Wunderground v.1.15,2013-05-19 01:02:00,
2013-05-18 21:08:00,59.8,58.4,30.24,SE,131,12.0,14.0,95,0.07,,,0.11,0,Wunderground v.1.15,2013-05-19 01:08:00,
2013-05-18 21:14:00,59.8,58.4,30.24,SE,127,12.0,12.0,95,0.07,,,0.12,0,Wunderground v.1.15,2013-05-19 01:14:00,
2013-05-18 21:20:00,59.8,58.4,30.24,SE,126,11.0,13.0,95,0.05,,,0.12,0,Wunderground v.1.15,2013-05-19 01:20:00,
2013-05-18 21:26:00,59.8,58.4,30.24,ESE,123,12.0,13.0,95,0.04,,,0.13,0,Wunderground v.1.15,2013-05-19 01:26:00,
2013-05-18 21:32:00,59.7,58.3,30.24,ESE,117,13.0,14.0,95,0.04,,,0.13,0,Wunderground v.1.15,2013-05-19 01:32:00,
2013-05-18 21:38:00,59.7,58.3,30.24,SE,127,13.0,17.0,95,0.06,,,0.14,0,Wunderground v.1.15,2013-05-19 01:38:00,
2013-05-18 21:44:00,59.7,58.3,30.24,SE,130,13.0,14.0,95,0.06,,,0.14,0,Wunderground v.1.15,2013-05-19 01:44:00,
2013-05-18 21:50:00,59.8,58.4,30.24,SE,124,12.0,12.0,95,0.05,,,0.15,0,Wunderground v.1.15,2013-05-19 01:50:00,
2013-05-18 21:56:00,59.8,58.4,30.24,ESE,117,12.0,14.0,95,0.05,,,0.15,0,Wunderground v.1.15,2013-05-19 01:56:00,
2013-05-18 22:02:00,59.9,58.8,30.24,SE,133,12.0,12.0,96,0.05,,,0.16,0,Wunderground v.1.15,2013-05-19 02:02:00,
2013-05-18 22:08:00,60.1,59.0,30.24,SE,130,13.0,16.0,96,0.05,,,0.16,0,Wunderground v.1.15,2013-05-19 02:08:00,
2013-05-18 22:14:00,60.2,59.1,30.24,SE,139,15.0,17.0,96,0.05,,,0.17,0,Wunderground v.1.15,2013-05-19 02:14:00,
2013-05-18 22:20:00,60.3,59.2,30.24,SE,136,16.0,16.0,96,0.05,,,0.17,0,Wunderground v.1.15,2013-05-19 02:20:00,
2013-05-18 22:26:00,60.4,59.3,30.24,SSE,161,16.0,20.0,96,0.04,,,0.17,0,Wunderground v.1.15,2013-05-19 02:26:00,
2013-05-18 22:32:00,60.3,59.2,30.24,SE,138,16.0,17.0,96,0.00,,,0.18,0,Wunderground v.1.15,2013-05-19 02:32:00,
2013-05-18 22:38:00,60.3,59.2,30.24,SE,144,16.0,17.0,96,0.00,,,0.18,0,Wunderground v.1.15,2013-05-19 02:38:00,
2013-05-18 22:44:00,60.3,59.2,30.24,SE,144,15.0,16.0,96,0.00,,,0.18,0,Wunderground v.1.15,2013-05-19 02:44:00,
2013-05-18 22:50:00,60.2,59.1,30.23,SE,142,16.0,17.0,96,0.00,,,0.18,0,Wunderground v.1.15,2013-05-19 02:50:00,
2013-05-18 22:56:00,60.3,59.2,30.23,SSE,159,16.0,17.0,96,0.00,,,0.18,0,Wunderground v.1.15,2013-05-19 02:56:00,
2013-05-18 23:02:00,60.3,59.2,30.23,SSE,161,15.0,16.0,96,0.18,,,0.20,0,Wunderground v.1.15,2013-05-19 03:02:00,
2013-05-18 23:08:00,60.4,59.3,30.23,SE,143,16.0,21.0,96,0.17,,,0.22,0,Wunderground v.1.15,2013-05-19 03:08:00,
2013-05-18 23:14:00,60.4,59.3,30.23,SSE,154,17.0,20.0,96,0.08,,,0.22,0,Wunderground v.1.15,2013-05-19 03:14:00,
2013-05-18 23:20:00,60.4,59.3,30.23,SSE,150,16.0,17.0,96,0.08,,,0.23,0,Wunderground v.1.15,2013-05-19 03:20:00,
2013-05-18 23:26:00,60.4,59.3,30.23,SSE,164,16.0,17.0,96,0.10,,,0.24,0,Wunderground v.1.15,2013-05-19 03:26:00,
2013-05-18 23:32:00,60.5,59.4,30.23,SE,143,17.0,20.0,96,0.09,,,0.25,0,Wunderground v.1.15,2013-05-19 03:32:00,
2013-05-18 23:38:00,60.5,59.4,30.23,SSE,160,17.0,20.0,96,0.05,,,0.25,0,Wunderground v.1.15,2013-05-19 03:38:00,
2013-05-18 23:44:00,60.5,59.4,30.23,SSE,152,19.0,23.0,96,0.05,,,0.26,0,Wunderground v.1.15,2013-05-19 03:44:00,
2013-05-18 23:50:00,60.6,59.5,30.24,SSE,149,19.0,19.0,96,0.05,,,0.26,0,Wunderground v.1.15,2013-05-19 03:50:00,
2013-05-18 23:56:00,60.6,59.5,30.24,SSE,150,18.0,23.0,96,0.00,,,0.26,0,Wunderground v.1.15,2013-05-19 03:56:00,